Location: Volkssternwarte_EN
(51.3230°N, 7.4010°E)
Time: 06:05:13
(UTC+01:00)

BlueWalker 3 - Pass Details

Date: 05 December 2022
Orbit: 499 x 517 km, 53.2° (Epoch: 28 January)

Event Time Altitude Azimuth Distance (km) Brightness Sun altitude
Rises 17:37:21 0° 278° (W) 2,634 6.7 -10.8°
Reaches altitude 10° 17:39:34 10° 281° (WNW) 1,743 5.6 -11.2°
Maximum altitude 17:43:30 66° 5° (N) 562 2.0 -11.7°
Enters shadow 17:46:18 18° 85° (E) 1,303 3.4 -12.1°
